Home > Weather > Providence > Past weeks

Flag for USA Past Weather in Providence, Rhode Island, USA — Yesterday and Last 2 Weeks

Now
69 °F

Broken clouds.


Feels Like: 69 °F
Forecast: 65 / 79 °F
Wind: 10 mph from Southeast

Location: Green State Airport

Current Time: May 29, 2016 at 7:17:37 PM

Latest Report: May 29, 2016 at 6:51 PM


Visibility: 10 mi

Pressure: 30.12 "Hg

Humidity: 81%

Dew Point: 63 °F

Location of ProvidenceLocation

Past Weather in Providence — Graph

°F

Providence Temperature Yesterday

Maximum temperature yesterday: 89 °F (at 3:51 PM)
Minimum temperature yesterday: 63 °F (at 4:51 AM)
Average temperature yesterday: 76 °F

High & Low Weather Summary for the Past Weeks

 TemperatureHumidityPressure
High89 °F (May 25, 3:51 PM)100% (May 25, 5:51 AM)30.22 "Hg (May 25, 5:51 AM)
Low41 °F (May 16, 5:51 AM)19% (May 25, 4:51 PM)29.54 "Hg (May 15, 2:51 AM)
Average63 °F59%30.00 "Hg
* Reported May 14 5:51 PM — May 29 5:51 PM, Providence, Weather by CustomWeather, © 2016

Note: Actual official high and low records may vary slightly from our data, if they occured in-between our weather recording intervals... More about our weather records

Advertising

Providence Weather History for the Previous 24 Hours

Scroll right to see more
 ConditionsComfort  
Time TempWeatherWind HumidityBarometerVisibility
5:51 PM
Sun, May 29
75 °FPassing clouds.9 mph60%30.11 "Hg10 mi
4:51 PM77 °FPassing clouds.12 mph58%30.13 "Hg10 mi
3:51 PM77 °FPartly sunny.12 mph58%30.14 "Hg10 mi
2:51 PM79 °FOvercast.9 mph58%30.14 "Hg10 mi
1:51 PM78 °FPartly sunny.6 mph60%30.15 "Hg10 mi
12:51 PM76 °FPartly sunny.7 mph64%30.17 "Hg10 mi
11:51 AM74 °FPartly sunny.7 mph64%30.17 "Hg9 mi
10:51 AM74 °FPartly sunny.7 mph67%30.18 "Hg8 mi
9:51 AM73 °FPartly sunny.7 mph69%30.18 "Hg9 mi
8:51 AM72 °FScattered clouds.8 mph73%30.17 "Hg8 mi
7:51 AM70 °FScattered clouds.5 mph73%30.17 "Hg10 mi
6:51 AM69 °FScattered clouds.3 mph68%30.15 "Hg10 mi
5:51 AM65 °FPassing clouds.No wind78%30.14 "Hg10 mi
4:51 AM67 °FClear.No wind63%30.11 "Hg10 mi
3:51 AM69 °FClear.3 mph57%30.11 "Hg10 mi
2:51 AM70 °FClear.7 mph57%30.11 "Hg10 mi
1:51 AM72 °FClear.3 mph57%30.11 "Hg10 mi
12:51 AM73 °FClear.9 mph62%30.11 "Hg10 mi
11:51 PM
Sat, May 28
74 °FPassing clouds.9 mph64%30.11 "Hg10 mi
10:51 PM76 °FPassing clouds.9 mph62%30.11 "Hg10 mi
9:51 PM76 °FPassing clouds.8 mph64%30.11 "Hg10 mi
8:51 PM78 °FScattered clouds.9 mph62%30.10 "Hg10 mi
7:51 PM80 °FPartly sunny.9 mph60%30.09 "Hg10 mi
Weather by CustomWeather, © 2016

See weather overviewHow to use our weather pages